Asheboro, NC

3:39 AM EST on December 09, 2016 (GMT -0500)
Asheboro Municipal

Weather History for KHBI - August, 2014

Change the Weather History Date:

Tuesday, August 26, 2014

  Actual Average Record
Temperature  
Mean Temperature 70 °F -  
Max Temperature 80 °F 86 °F 98 °F (1975)
Min Temperature 59 °F 65 °F 50 °F (1942)
Cooling Degree Days 4    
Growing Degree Days 20 (Base 50)    
Moisture  
Dew Point 59 °F    
Average Humidity 76    
Maximum Humidity 97    
Minimum Humidity 39    
Precipitation  
Precipitation 0.00 in - - ()
Sea Level Pressure  
Sea Level Pressure 30.16 in    
Wind  
Wind Speed 2 mph (NNE)    
Max Wind Speed 13 mph    
Max Gust Speed -    
Visibility 10 miles    
Events      
Averages and records for this station are not official NWS values.
T = Trace of Precipitation, MM = Missing Value Source: NWS Daily Summary

Daily Weather History Graph

Daily Weather History Graph

Search for Another Location

Airport or City:

Trip Planner

Search our weather history database for the weather conditions in past years. The results will help you decide how hot, cold, wet, or windy it might be!

Date:

Astronomy

Aug. 26, 2014 Rise Set
Actual Time 6:47 AM EDT 7:55 PM EDT
Civil Twilight 6:20 AM EDT 8:21 PM EDT
Nautical Twilight 5:49 AM EDT 8:52 PM EDT
Astronomical Twilight 5:16 AM EDT 9:25 PM EDT
Moon 7:42 AM EDT (8/26) 8:19 PM EDT (8/26)
Length of Visible Light 14h 00m
Length of Day
13h 07m
New Moon, 1% of the Moon is Illuminated
Aug 26
New Moon
Sep 2
First Quarter
Sep 8
Full
Sep 15
Last Quarter
Sep 24
New

Hourly Weather History & Observations

Time (EDT) Temp. Heat Index Dew Point Humidity Pressure Visibility Wind Dir Wind Speed Gust Speed Precip Events Conditions
12:15 AM 68.9 °F - 60.3 °F 74% 30.17 in 10.0 mi Calm Calm - N/A   Mostly Cloudy
12:35 AM 66.9 °F - 61.2 °F 82% 30.18 in 10.0 mi Calm Calm - N/A   Overcast
12:55 AM 66.0 °F - 61.0 °F 84% 30.17 in 10.0 mi Calm Calm - N/A   Scattered Clouds
1:15 AM 64.8 °F - 61.0 °F 88% 30.18 in 10.0 mi Calm Calm - N/A   Clear
1:30 AM 64.4 °F - 60.8 °F 88% 30.18 in 10.0 mi Calm Calm - N/A   Scattered Clouds
1:55 AM 64.0 °F - 61.0 °F 90% 30.17 in 10.0 mi Calm Calm - N/A   Scattered Clouds
2:15 AM 62.8 °F - 60.8 °F 93% 30.17 in 10.0 mi Calm Calm - N/A   Clear
2:35 AM 62.6 °F - 60.8 °F 94% 30.17 in 10.0 mi Calm Calm - N/A   Clear
2:55 AM 62.1 °F - 60.6 °F 95% 30.17 in 10.0 mi Calm Calm - N/A   Clear
3:15 AM 61.7 °F - 60.6 °F 96% 30.16 in 10.0 mi Calm Calm - N/A   Clear
3:35 AM 61.5 °F - 60.1 °F 95% 30.15 in 10.0 mi Calm Calm - N/A   Clear
3:55 AM 61.0 °F - 59.5 °F 95% 30.15 in 10.0 mi NNE 3.5 mph - N/A   Clear
4:15 AM 62.6 °F - 60.3 °F 92% 30.14 in 10.0 mi Calm Calm - N/A   Clear
4:35 AM 62.1 °F - 59.7 °F 92% 30.14 in 10.0 mi Calm Calm - N/A   Clear
4:55 AM 62.6 °F - 60.1 °F 91% 30.14 in 10.0 mi Calm Calm - N/A   Clear
5:15 AM 62.1 °F - 59.4 °F 91% 30.14 in 10.0 mi NE 3.5 mph - N/A   Clear
5:35 AM 60.3 °F - 59.0 °F 96% 30.15 in 10.0 mi Calm Calm - N/A   Clear
5:55 AM 59.9 °F - 59.2 °F 97% 30.16 in 10.0 mi Calm Calm - N/A   Clear
6:15 AM 59.7 °F - 58.8 °F 97% 30.17 in 10.0 mi Calm Calm - N/A   Clear
6:35 AM 59.2 °F - 58.5 °F 97% 30.17 in 10.0 mi Calm Calm - N/A   Clear
6:55 AM 60.3 °F - 59.4 °F 97% 30.18 in 10.0 mi Calm Calm - N/A   Clear
7:15 AM 60.3 °F - 59.0 °F 96% 30.18 in 10.0 mi North 3.5 mph - N/A   Clear
7:35 AM 60.3 °F - 59.4 °F 97% 30.19 in 10.0 mi NNE 4.6 mph - N/A   Clear
7:55 AM 61.7 °F - 60.1 °F 94% 30.18 in 10.0 mi NNE 4.6 mph - N/A   Clear
8:15 AM 63.3 °F - 60.6 °F 91% 30.18 in 10.0 mi North 3.5 mph - N/A   Clear
8:35 AM 64.8 °F - 60.8 °F 87% 30.18 in 10.0 mi North 4.6 mph - N/A   Clear
8:55 AM 66.2 °F - 60.8 °F 83% 30.19 in 10.0 mi North 8.1 mph - N/A   Clear
9:15 AM 67.1 °F - 60.3 °F 79% 30.19 in 10.0 mi NNE 5.8 mph - N/A   Clear
9:55 AM 69.4 °F - 59.7 °F 71% 30.19 in 10.0 mi North 10.4 mph - N/A   Clear
10:55 AM 71.8 °F - 58.5 °F 63% 30.19 in 10.0 mi NE 9.2 mph - N/A   Clear
11:15 AM 72.7 °F - 58.3 °F 60% 30.19 in 10.0 mi NE 9.2 mph - N/A   Clear
11:35 AM 74.3 °F - 57.4 °F 55% 30.19 in 10.0 mi North 9.2 mph - N/A   Clear
11:55 AM 74.3 °F - 55.9 °F 53% 30.19 in 10.0 mi NNE 6.9 mph - N/A   Clear
12:15 PM 75.4 °F - 55.8 °F 50% 30.19 in 10.0 mi NNE 8.1 mph - N/A   Clear
12:35 PM 76.1 °F - 56.3 °F 50% 30.18 in 10.0 mi NE 6.9 mph - N/A   Clear
12:55 PM 76.5 °F - 56.7 °F 50% 30.17 in 10.0 mi North 8.1 mph - N/A   Clear
1:15 PM 77.5 °F - 54.7 °F 45% 30.17 in 10.0 mi North 12.7 mph - N/A   Clear
1:35 PM 78.3 °F - 54.0 °F 43% 30.17 in 10.0 mi NE 8.1 mph - N/A   Clear
1:55 PM 78.1 °F - 52.5 °F 41% 30.16 in 10.0 mi NE 6.9 mph - N/A   Clear
2:15 PM 79.3 °F - 52.2 °F 39% 30.16 in 10.0 mi ENE 6.9 mph - N/A   Clear
2:35 PM - - - N/A% 30.15 in 10.0 mi ENE 6.9 mph - N/A   Clear
2:55 PM - - - N/A% 30.14 in 10.0 mi NE 9.2 mph - N/A   Clear
3:15 PM 79.7 °F - 54.9 °F 42% 30.14 in 10.0 mi NNE 9.2 mph - N/A   Clear
3:35 PM 80.1 °F 80.1 °F 55.0 °F 42% 30.13 in 10.0 mi NNE 6.9 mph - N/A   Clear
3:55 PM - - - N/A% 30.12 in 10.0 mi ENE 5.8 mph - N/A   Clear
4:15 PM - - - N/A% 30.12 in 10.0 mi NNE 6.9 mph - N/A   Clear
4:35 PM - - - N/A% 30.12 in 10.0 mi NNE 6.9 mph - N/A   Clear
4:55 PM - - - N/A% 30.12 in 10.0 mi NE 5.8 mph - N/A   Clear
5:15 PM - - - N/A% 30.12 in 10.0 mi North 12.7 mph - N/A   Clear
5:35 PM 80.6 °F 80.6 °F 56.5 °F 43% 30.12 in 10.0 mi NNE 9.2 mph - N/A   Clear
5:55 PM 79.7 °F - 57.9 °F 47% 30.12 in 10.0 mi NE 6.9 mph - N/A   Clear
6:15 PM 79.2 °F - 58.3 °F 49% 30.12 in 10.0 mi NE 5.8 mph - N/A   Clear
6:35 PM 78.8 °F - 58.6 °F 50% 30.13 in 10.0 mi Calm Calm - N/A   Clear
6:55 PM - - - N/A% 30.13 in 10.0 mi NE 3.5 mph - N/A   Clear
7:15 PM 77.4 °F - 59.9 °F 55% 30.13 in 10.0 mi Calm Calm - N/A   Clear
7:35 PM 75.7 °F - 60.6 °F 59% 30.13 in 10.0 mi Calm Calm - N/A   Clear
7:55 PM - - - N/A% 30.12 in 10.0 mi Calm Calm - N/A   Clear
8:15 PM 72.1 °F - 61.3 °F 69% 30.13 in 10.0 mi Calm Calm - N/A   Clear
8:35 PM 70.2 °F - 61.3 °F 74% 30.13 in 10.0 mi Calm Calm - N/A   Clear
8:55 PM 69.4 °F - 61.5 °F 76% 30.14 in 10.0 mi Calm Calm - N/A   Clear
9:15 PM 68.4 °F - 61.7 °F 79% 30.14 in 10.0 mi Calm Calm - N/A   Clear
9:35 PM 68.0 °F - 61.3 °F 79% 30.15 in 10.0 mi Calm Calm - N/A   Clear
9:55 PM 66.4 °F - 61.2 °F 83% 30.15 in 10.0 mi Calm Calm - N/A   Clear
10:15 PM 65.7 °F - 61.7 °F 87% 30.15 in 10.0 mi Calm Calm - N/A   Clear
10:35 PM 65.3 °F - 61.5 °F 88% 30.15 in 10.0 mi Calm Calm - N/A   Clear
10:55 PM 64.8 °F - 61.2 °F 88% 30.15 in 10.0 mi Calm Calm - N/A   Clear
11:15 PM 64.0 °F - 61.0 °F 90% 30.15 in 10.0 mi Calm Calm - N/A   Clear
11:35 PM 63.5 °F - 61.0 °F 91% 30.14 in 10.0 mi Calm Calm - N/A   Clear
11:55 PM 63.0 °F - 61.0 °F 93% 30.14 in 10.0 mi Calm Calm - N/A   Clear